Theta_e
310 311 311 310 309 309 307 308 304 307 308 312 315 319 327 329 332 335 340 339 337 342 347 344 350 355 362 357 363 360 366 363 366 371 378 375 370 372 366 368 368 368 368 368
308 311 311 308 310 310 310 309 308 308 307 315 316 322 325 329 329 332 337 344 347 347 349 349 354 359 363 363 355 351 341 340 352 358 366 372 374 376 374 367 366 368 368 368
304 310 309 305 310 310 309 311 309 306 310 315 314 316 320 326 333 332 335 343 348 348 348 350 349 357 355 357 348 345 338 337 334 341 349 351 348 352 364 364 366 365 366 367
305 308 299 310 315 312 310 310 311 314 313 315 315 319 325 331 337 335 338 339 344 346 347 345 341 340 356 352 350 348 344 341 345 340 343 344 338 333 336 350 360 365 365 365
303 303 307 310 313 311 310 311 317 319 319 320 322 323 328 331 336 337 340 341 341 340 341 346 345 352 348 347 346 346 345 344 343 343 347 349 344 335 336 353 361 365 366 365
306 302 300 311 315 318 317 307 321 322 322 323 325 317 324 329 326 324 333 342 342 340 343 342 349 350 353 349 353 355 360 361 362 359 356 355 354 355 362 366 362 364 363 364
306 304 307 315 317 318 305 310 320 320 319 319 318 320 324 326 328 330 333 335 340 343 343 345 345 346 350 354 354 358 359 361 362 364 361 362 357 360 358 364 363 366 366 365
309 306 302 319 317 311 318 320 320 320 320 319 320 320 321 323 329 332 333 335 338 340 343 340 345 348 351 353 362 362 361 363 363 363 357 354 357 356 357 361 358 356 356 363
311 311 320 320 319 320 320 319 320 320 321 321 319 319 322 324 326 327 328 331 331 334 337 333 343 343 343 348 357 358 357 357 359 362 360 361 361 359 353 353 350 349 343 345
314 316 317 319 321 322 322 321 321 322 321 320 319 319 321 322 322 325 326 327 328 329 331 333 346 343 341 339 339 350 349 350 352 353 354 357 352 351 349 345 343 345 345 343
315 318 319 320 321 323 323 323 322 322 321 320 320 320 321 322 324 325 327 328 329 330 330 336 343 346 344 346 349 344 344 342 343 340 343 342 346 341 341 346 340 342 344 345
311 319 320 320 322 323 321 321 321 320 320 321 322 322 323 324 326 327 328 328 328 330 330 332 337 342 349 348 345 342 338 336 332 330 330 335 334 334 321 318 317 313 316 330
318 321 320 321 322 323 321 320 320 321 321 320 321 321 323 324 326 324 327 327 328 329 330 334 338 336 339 348 347 344 340 339 333 329 332 332 328 327 324 326 312 310 308 309
323 322 319 321 319 322 322 322 321 321 321 321 320 323 322 322 323 324 324 325 325 327 329 331 335 335 339 344 344 341 339 322 331 329 326 327 331 332 328 327 328 332 319 314
322 322 322 322 321 321 322 321 319 318 319 319 320 321 320 320 321 323 326 326 325 324 323 325 326 332 339 339 339 336 333 330 328 328 330 326 329 326 325 325 324 324 331 313
322 321 320 320 319 319 319 319 317 316 318 321 318 319 323 324 324 325 326 325 318 317 324 326 324 321 329 336 333 329 328 325 322 326 323 324 324 324 324 325 326 328 330 329
319 317 317 318 318 318 317 317 317 318 319 319 321 323 324 324 323 322 321 321 320 316 321 324 324 322 320 332 329 325 323 325 324 324 322 322 322 322 322 323 323 325 331 329
321 320 320 319 317 316 316 318 319 319 318 321 324 325 323 321 319 319 319 320 318 317 319 323 320 317 315 319 325 324 323 323 324 323 324 324 324 324 323 324 323 323 326 331
320 318 318 318 318 318 319 319 319 323 324 324 321 323 322 320 319 319 318 318 317 317 319 320 318 317 319 318 327 326 323 323 323 323 324 321 324 323 323 324 323 324 324 327
319 319 318 318 320 320 319 322 325 325 326 324 325 322 318 317 318 319 320 317 319 319 323 320 316 316 318 325 327 325 325 324 323 323 323 323 323 324 326 318 323 325 325 324
317 318 318 319 319 322 324 326 325 325 323 324 323 318 316 318 319 320 319 315 321 324 321 318 317 318 315 319 318 317 318 319 320 322 322 321 321 324 324 325 325 326 326 326
318 319 319 320 323 324 327 328 326 325 324 323 319 317 317 318 320 319 322 320 322 316 320 321 319 318 319 319 320 320 320 322 322 321 321 322 323 325 325 325 324 326 326 328
321 320 322 325 325 325 327 327 327 324 321 321 319 318 318 317 318 316 316 321 318 314 319 319 315 317 317 318 319 320 320 320 320 320 320 321 322 323 326 326 326 329 329 329
322 324 326 327 327 326 324 324 324 324 322 322 321 321 320 317 321 321 322 316 314 315 320 319 317 315 315 320 319 319 320 320 318 318 318 310 319 322 325 326 323 325 329 326
325 326 324 325 323 323 324 324 323 324 323 322 322 323 324 323 321 323 325 327 315 319 321 318 316 315 319 320 319 318 319 319 319 322 322 322 323 323 324 325 324 323 323 323
328 328 326 331 323 325 323 322 320 322 322 322 324 326 327 327 327 327 329 325 329 320 327 325 324 326 323 321 321 319 319 319 318 318 318 319 319 319 319 319 319 320 322 322
326 313 326 326 323 323 323 322 322 322 323 324 324 327 328 329 327 324 320 324 323 317 315 317 318 318 321 326 326 326 326 323 313 322 321 320 320 320 320 320 319 319 320 321
Wind_Speed
14 16 17 15 14 15 14 13 14 17 18 13 11 7 9 4 4 2 4 7 3 2 11 18 16 6 5 4 5 8 5 7 10 6 1 5 6 8 11 10 12 12 12 12
14 15 15 16 14 18 18 14 16 15 17 13 12 5 6 6 1 5 7 4 2 7 8 7 7 4 4 4 11 11 12 14 9 6 5 7 5 3 3 8 10 11 13 14
14 14 15 14 15 10 7 8 10 11 12 11 5 4 6 5 10 5 1 7 4 5 10 10 10 8 9 9 9 3 5 5 13 10 10 3 7 11 9 9 9 12 13 15
11 12 15 13 4 3 7 9 10 10 9 11 7 5 7 10 13 12 7 2 2 8 13 14 15 10 8 10 4 4 5 5 8 7 4 8 6 6 10 16 15 10 12 14
9 11 14 16 5 3 2 7 12 13 14 11 7 5 15 24 17 9 8 3 5 5 7 9 15 13 10 9 8 7 7 9 7 6 8 5 4 10 11 23 9 10 12 14
9 12 12 7 8 7 6 6 11 13 15 17 16 8 7 14 19 32 35 8 10 11 9 6 7 11 13 16 15 13 12 10 10 10 6 3 5 6 8 6 9 8 11 12
9 10 9 5 6 4 6 5 8 8 10 13 12 10 10 12 14 16 27 17 19 8 12 12 10 11 8 6 8 8 7 7 7 5 4 2 3 2 3 5 5 6 8 10
10 11 12 9 4 4 5 4 9 9 9 11 13 14 13 10 1 3 8 12 15 14 10 15 7 10 7 8 5 5 5 3 4 5 4 4 6 5 3 4 5 6 9 8
8 7 3 1 6 6 6 6 9 10 12 13 15 15 13 8 9 11 11 9 10 10 9 3 11 6 3 13 3 6 5 5 6 6 5 5 4 5 5 6 7 5 5 7
9 7 10 14 10 8 7 6 7 10 13 14 15 16 14 12 13 10 10 12 12 14 7 6 9 8 10 13 17 11 5 5 6 6 5 5 6 8 8 8 6 4 4 5
7 10 13 13 8 8 8 8 11 12 12 12 13 13 14 13 13 11 12 11 11 11 13 6 3 1 12 9 10 7 6 7 8 8 8 8 10 9 8 6 6 5 4 6
9 9 9 7 9 11 11 12 14 11 11 12 14 15 15 12 11 11 12 12 12 12 15 11 7 4 4 5 10 8 7 6 7 7 7 4 4 4 8 11 12 13 14 9
8 7 11 7 8 11 12 10 9 11 14 15 15 14 13 11 11 10 11 13 13 14 13 13 7 7 7 6 6 8 7 6 4 4 4 3 5 6 8 10 9 10 10 11
10 8 12 11 8 10 9 10 12 11 13 14 14 13 14 13 13 13 12 13 16 17 15 14 12 10 10 8 8 7 6 8 4 4 6 7 4 4 6 7 8 7 13 11
15 15 8 5 6 9 10 10 12 13 13 14 14 13 12 12 12 12 12 14 14 15 17 17 14 13 11 12 11 10 7 7 8 8 3 3 4 6 8 10 10 11 7 3
10 4 3 9 5 9 10 12 14 15 14 13 13 12 12 12 12 14 14 13 12 12 16 13 14 13 21 16 12 10 10 12 7 3 4 6 6 6 8 8 10 10 8 4
6 7 10 9 4 8 11 12 14 14 14 12 11 12 14 15 15 14 13 15 15 16 16 15 15 17 15 25 17 7 7 7 7 4 6 7 6 7 7 7 9 10 7 5
2 1 4 6 8 10 12 12 13 14 12 12 12 11 13 11 13 13 13 14 13 15 14 9 7 10 11 20 13 4 4 6 6 6 6 7 7 8 8 9 10 10 9 5
4 3 4 7 9 10 11 12 12 12 11 10 7 11 9 10 10 11 13 13 13 13 8 4 7 9 9 20 13 6 7 9 9 8 9 9 9 9 9 10 10 11 11 7
1 3 6 9 9 9 10 10 9 12 12 11 9 8 7 11 10 10 10 12 11 9 5 6 6 7 9 13 7 8 11 12 11 10 10 10 10 9 7 8 11 11 10 10
3 5 7 8 8 8 7 8 10 9 8 7 7 8 9 9 9 8 9 8 9 8 1 4 7 7 6 5 10 10 10 8 9 10 11 11 9 7 7 7 9 10 10 10
4 6 6 6 7 9 8 7 6 5 5 5 7 7 7 6 7 5 4 7 5 10 8 7 8 15 15 23 13 12 12 11 11 11 11 10 10 8 8 8 10 8 10 9
4 4 5 6 6 7 8 5 3 4 3 4 6 5 4 4 6 6 6 8 6 8 6 6 9 17 21 11 9 11 13 13 11 11 10 10 11 10 8 8 7 6 7 9
1 3 4 5 4 5 6 4 6 5 2 8 3 1 5 5 4 5 2 7 5 4 4 3 5 15 18 9 8 8 8 8 4 5 6 8 8 8 6 4 5 6 6 6
0 3 5 5 5 5 5 4 6 5 6 5 1 4 3 4 3 4 4 5 5 3 3 6 7 11 7 8 10 10 10 10 9 7 6 5 7 7 5 4 4 3 2 3
2 2 3 2 7 4 6 4 6 7 4 5 5 5 5 4 4 4 3 4 4 6 4 5 6 4 4 4 6 8 9 9 10 9 9 8 8 7 7 6 6 5 5 4
4 1 2 1 8 7 8 8 7 6 4 5 1 1 3 2 1 3 4 6 5 7 7 5 4 4 4 3 5 6 5 5 6 6 6 7 6 6 6 6 6 5 5 4
Wind_Direction
305 314 316 316 308 300 289 283 285 301 312 316 336 87 97 92 114 140 177 201 153 240 119 159 190 133 148 191 159 180 153 71 48 32 279 202 217 196 202 208 203 207 204 209
272 272 275 278 288 277 271 267 276 276 282 287 295 117 147 153 188 190 178 278 66 99 131 158 123 133 124 77 86 97 92 82 3 43 357 292 285 292 274 239 230 208 216 214
295 312 307 288 275 287 329 323 325 302 310 296 290 335 333 202 160 273 122 159 166 168 155 144 155 148 143 127 114 92 154 252 192 195 192 33 47 5 315 261 250 241 228 227
273 279 268 277 315 339 309 300 282 306 319 329 333 15 332 353 157 183 169 348 247 215 166 165 157 157 174 159 157 211 214 165 160 144 166 234 156 106 348 313 258 246 245 236
280 265 264 269 17 10 35 347 3 348 357 0 346 291 38 19 14 9 94 195 251 241 46 114 124 140 148 161 166 171 176 171 170 170 200 207 156 108 187 249 248 252 246 245
266 289 289 352 73 23 357 268 21 360 357 360 350 18 29 36 37 8 335 221 224 212 140 130 149 158 164 169 174 180 167 172 178 196 212 219 194 182 209 209 231 240 254 249
262 252 266 28 59 19 267 48 356 15 357 356 354 6 22 103 102 138 252 357 333 209 165 179 195 172 182 177 169 151 147 159 159 162 166 210 173 219 261 269 286 280 247 257
243 256 261 40 327 326 50 21 7 348 345 331 328 329 340 349 6 241 311 320 316 325 305 17 294 151 157 175 183 134 137 176 188 180 192 215 180 174 248 264 269 273 271 266
308 340 44 9 16 51 15 343 328 337 333 332 318 316 317 311 322 328 324 304 289 295 315 180 137 334 5 325 99 155 192 200 235 228 207 213 236 217 221 237 230 239 301 300
256 272 336 328 334 329 304 315 351 328 322 317 314 314 320 327 323 314 312 311 311 312 313 301 174 167 145 168 226 231 202 225 237 238 236 244 236 235 235 242 232 216 212 263
268 273 278 269 294 3 357 332 315 305 310 311 312 318 319 312 312 311 311 308 308 310 313 292 300 0 171 186 173 196 205 226 228 230 225 230 232 236 241 248 245 239 243 218
270 276 290 323 336 325 319 314 308 307 302 310 313 305 302 300 306 316 324 328 325 320 311 290 309 316 249 187 164 175 218 224 236 241 249 251 270 280 264 249 257 217 218 217
265 311 314 310 315 319 300 292 306 310 309 302 294 301 306 313 308 308 310 315 315 317 315 296 245 265 290 225 179 189 213 254 287 255 256 290 284 268 263 264 223 223 234 214
309 253 261 266 295 292 323 309 298 300 287 291 305 317 315 317 325 327 329 327 322 317 305 301 287 242 244 212 197 186 209 240 259 255 248 244 256 283 293 285 289 282 235 210
270 273 300 329 318 310 299 298 297 298 312 317 319 318 322 318 309 306 304 313 305 301 299 306 302 275 224 211 193 185 202 228 239 240 259 300 299 285 278 277 277 273 273 148
257 266 265 257 271 276 295 301 320 317 313 313 314 311 307 316 314 322 327 323 320 311 307 312 309 323 323 236 188 187 212 229 240 249 271 264 259 271 278 278 287 272 274 238
286 296 290 272 295 303 320 325 308 312 309 307 307 329 334 334 327 319 312 309 311 304 296 304 322 307 321 305 148 188 215 231 206 228 255 250 250 266 273 280 286 296 260 237
247 275 300 297 317 323 313 308 309 305 310 329 354 344 336 338 319 315 309 312 309 302 285 294 9 342 34 304 296 278 247 267 259 247 260 265 256 253 259 272 281 283 285 243
172 229 315 318 309 301 307 316 320 350 346 337 325 329 330 317 323 328 322 318 319 306 298 352 351 358 271 264 255 263 267 263 270 269 257 257 265 260 254 250 251 265 276 262
197 291 310 306 313 326 316 314 329 321 329 320 332 345 333 329 332 325 310 308 307 313 326 295 344 324 317 279 254 244 250 255 258 257 255 253 257 264 267 289 282 281 276 267
314 315 315 340 322 310 335 320 325 328 334 345 336 350 347 333 322 311 329 335 351 343 81 270 282 338 341 332 301 289 285 282 287 284 270 264 275 245 244 265 287 285 279 289
328 338 342 317 332 309 322 333 320 342 360 340 16 0 336 303 318 297 29 16 20 352 347 28 18 348 339 333 311 291 278 277 268 267 274 277 279 264 263 267 274 287 297 305
352 348 307 335 329 328 320 291 267 74 355 33 38 11 351 337 319 8 23 30 22 2 24 30 341 328 323 314 294 288 283 276 268 264 264 271 277 294 260 253 262 263 280 303
339 288 319 274 306 42 35 43 79 112 64 91 64 324 317 323 70 28 27 133 99 353 24 316 311 320 337 345 349 345 351 354 271 237 239 242 253 253 255 274 300 310 309 324
297 334 270 354 327 90 81 117 131 169 129 94 33 212 73 39 15 332 350 358 146 244 212 264 274 302 346 352 12 13 14 22 23 33 28 24 31 36 26 23 31 53 49 36
117 304 80 178 64 80 111 108 91 40 54 80 40 18 19 14 7 330 28 125 108 163 219 257 302 296 306 341 24 26 22 28 34 35 44 47 40 40 39 43 44 29 27 45
111 241 76 34 85 94 100 105 101 91 83 82 78 294 311 253 305 254 269 113 148 87 69 52 23 15 333 88 59 44 57 54 44 53 56 62 62 50 43 42 38 37 32 26